Back to catalog

FENGYUN 1C DEB

AlivePO
NORAD 31231·DEBRIS·🇨🇳 China

Launched May 10, 1999 from Taiyuan Satellite Launch Center

Loading…

Next Passes (next 24 hours)

TLE

AgingSource: Space-Track

Epoch: Sep 10, 2026, 05:54 UTC

1 31231U 99025BLM 26253.24641326  .00011448  00000-0  11113-2 0  9998
2 31231  98.8662  86.6102 0118039 326.1507  33.2210 14.87682514670437

Track FENGYUN 1C DEB in real time with AllMySat

Download on the App Store